Year,Month,Day,Hour,Minute,Value (Times are PST for temperature in C)
2009,08,19,00,00,20.40
2009,08,19,00,01,20.40
2009,08,19,00,02,20.40
2009,08,19,00,03,20.30
2009,08,19,00,04,20.30
2009,08,19,00,05,20.30
2009,08,19,00,06,20.30
2009,08,19,00,07,20.30
2009,08,19,00,08,20.30
2009,08,19,00,09,20.20
2009,08,19,00,10,20.20
2009,08,19,00,11,20.20
2009,08,19,00,12,20.20
2009,08,19,00,13,20.10
2009,08,19,00,14,20.10
2009,08,19,00,15,20.10
2009,08,19,00,16,20.10
2009,08,19,00,17,20.10
2009,08,19,00,18,20.10
2009,08,19,00,19,20.10
2009,08,19,00,20,20.10
2009,08,19,00,21,20.00
2009,08,19,00,22,20.00
2009,08,19,00,23,20.00
2009,08,19,00,24,20.00
2009,08,19,00,25,20.00
2009,08,19,00,26,20.00
2009,08,19,00,27,20.00
2009,08,19,00,28,20.00
2009,08,19,00,29,20.00
2009,08,19,00,30,20.00
2009,08,19,00,31,20.00
2009,08,19,00,32,20.00
2009,08,19,00,33,20.00
2009,08,19,00,34,20.00
2009,08,19,00,35,20.00
2009,08,19,00,36,20.00
2009,08,19,00,37,20.00
2009,08,19,00,38,20.00
2009,08,19,00,39,20.00
2009,08,19,00,40,20.00
2009,08,19,00,41,20.00
2009,08,19,00,42,20.00
2009,08,19,00,43,20.00
2009,08,19,00,44,20.00
2009,08,19,00,45,20.00
2009,08,19,00,46,20.00
2009,08,19,00,47,20.00
2009,08,19,00,48,20.00
2009,08,19,00,49,20.00
2009,08,19,00,50,20.00
2009,08,19,00,51,19.90
2009,08,19,00,52,19.90
2009,08,19,00,53,19.90
2009,08,19,00,54,19.90
2009,08,19,00,55,19.90
2009,08,19,00,56,19.90
2009,08,19,00,57,19.90
2009,08,19,00,58,19.90
2009,08,19,00,59,19.90
2009,08,19,01,00,19.90
2009,08,19,01,01,19.80
2009,08,19,01,02,19.80
2009,08,19,01,03,19.80
2009,08,19,01,04,19.80
2009,08,19,01,05,19.80
2009,08,19,01,06,19.80
2009,08,19,01,07,19.80
2009,08,19,01,08,19.80
2009,08,19,01,09,19.80
2009,08,19,01,10,19.80
2009,08,19,01,11,19.70
2009,08,19,01,12,19.70
2009,08,19,01,13,19.70
2009,08,19,01,14,19.70
2009,08,19,01,15,19.70
2009,08,19,01,16,19.70
2009,08,19,01,17,19.70
2009,08,19,01,18,19.70
2009,08,19,01,19,19.70
2009,08,19,01,20,19.70
2009,08,19,01,21,19.70
2009,08,19,01,22,19.70
2009,08,19,01,23,19.70
2009,08,19,01,24,19.70
2009,08,19,01,25,19.70
2009,08,19,01,26,19.70
2009,08,19,01,27,19.70
2009,08,19,01,28,19.70
2009,08,19,01,29,19.70
2009,08,19,01,30,19.70
2009,08,19,01,31,19.60
2009,08,19,01,32,19.60
2009,08,19,01,33,19.60
2009,08,19,01,34,19.60
2009,08,19,01,35,19.60
2009,08,19,01,36,19.60
2009,08,19,01,37,19.60
2009,08,19,01,38,19.60
2009,08,19,01,39,19.50
2009,08,19,01,40,19.50
2009,08,19,01,41,19.50
2009,08,19,01,42,19.50
2009,08,19,01,43,19.50
2009,08,19,01,44,19.50
2009,08,19,01,45,19.40
2009,08,19,01,46,19.40
2009,08,19,01,47,19.40
2009,08,19,01,48,19.40
2009,08,19,01,49,19.40
2009,08,19,01,50,19.40
2009,08,19,01,51,19.40
2009,08,19,01,52,19.30
2009,08,19,01,53,19.30
2009,08,19,01,54,19.30
2009,08,19,01,55,19.30
2009,08,19,01,56,19.20
2009,08,19,01,57,19.20
2009,08,19,01,58,19.20
2009,08,19,01,59,19.10
2009,08,19,02,00,19.10
2009,08,19,02,01,19.10
2009,08,19,02,02,19.10
2009,08,19,02,03,19.00
2009,08,19,02,04,19.00
2009,08,19,02,05,18.90
2009,08,19,02,06,18.90
2009,08,19,02,07,18.90
2009,08,19,02,08,18.80
2009,08,19,02,09,18.80
2009,08,19,02,10,18.80
2009,08,19,02,11,18.80
2009,08,19,02,12,18.70
2009,08,19,02,13,18.70
2009,08,19,02,14,18.70
2009,08,19,02,15,18.70
2009,08,19,02,16,18.70
2009,08,19,02,17,18.70
2009,08,19,02,18,18.60
2009,08,19,02,19,18.60
2009,08,19,02,20,18.60
2009,08,19,02,21,18.60
2009,08,19,02,22,18.60
2009,08,19,02,23,18.60
2009,08,19,02,24,18.60
2009,08,19,02,25,18.60
2009,08,19,02,26,18.60
2009,08,19,02,27,18.60
2009,08,19,02,28,18.60
2009,08,19,02,29,18.60
2009,08,19,02,30,18.60
2009,08,19,02,31,18.50
2009,08,19,02,32,18.50
2009,08,19,02,33,18.50
2009,08,19,02,34,18.50
2009,08,19,02,35,18.50
2009,08,19,02,36,18.50
2009,08,19,02,37,18.50
2009,08,19,02,38,18.50
2009,08,19,02,39,18.40
2009,08,19,02,40,18.40
2009,08,19,02,41,18.40
2009,08,19,02,42,18.40
2009,08,19,02,43,18.40
2009,08,19,02,44,18.40
2009,08,19,02,45,18.30
2009,08,19,02,46,18.30
2009,08,19,02,47,18.30
2009,08,19,02,48,18.30
2009,08,19,02,49,18.30
2009,08,19,02,50,18.30
2009,08,19,02,51,18.20
2009,08,19,02,52,18.20
2009,08,19,02,53,18.20
2009,08,19,02,54,18.20
2009,08,19,02,55,18.20
2009,08,19,02,56,18.20
2009,08,19,02,57,18.20
2009,08,19,02,58,18.20
2009,08,19,02,59,18.20
2009,08,19,03,00,18.20
2009,08,19,03,01,18.20
2009,08,19,03,02,18.10
2009,08,19,03,03,18.10
2009,08,19,03,04,18.10
2009,08,19,03,05,18.10
2009,08,19,03,06,18.10
2009,08,19,03,07,18.10
2009,08,19,03,08,18.10
2009,08,19,03,09,18.10
2009,08,19,03,10,18.00
2009,08,19,03,11,18.00
2009,08,19,03,12,18.00
2009,08,19,03,13,18.00
2009,08,19,03,14,18.00
2009,08,19,03,15,17.90
2009,08,19,03,16,17.90
2009,08,19,03,17,17.90
2009,08,19,03,18,17.90
2009,08,19,03,19,17.80
2009,08,19,03,20,17.80
2009,08,19,03,21,17.80
2009,08,19,03,22,17.80
2009,08,19,03,23,17.70
2009,08,19,03,24,17.70
2009,08,19,03,25,17.70
2009,08,19,03,26,17.70
2009,08,19,03,27,17.70
2009,08,19,03,28,17.70
2009,08,19,03,29,17.60
2009,08,19,03,30,17.60
2009,08,19,03,31,17.60
2009,08,19,03,32,17.60
2009,08,19,03,33,17.60
2009,08,19,03,34,17.60
2009,08,19,03,35,17.60
2009,08,19,03,36,17.60
2009,08,19,03,37,17.60
2009,08,19,03,38,17.60
2009,08,19,03,39,17.60
2009,08,19,03,40,17.60
2009,08,19,03,41,17.60
2009,08,19,03,42,17.60
2009,08,19,03,43,17.60
2009,08,19,03,44,17.60
2009,08,19,03,45,17.60
2009,08,19,03,46,17.60
2009,08,19,03,47,17.60
2009,08,19,03,48,17.60
2009,08,19,03,49,17.60
2009,08,19,03,50,17.60
2009,08,19,03,51,17.60
2009,08,19,03,52,17.60
2009,08,19,03,53,17.60
2009,08,19,03,54,17.60
2009,08,19,03,55,17.60
2009,08,19,03,56,17.60
2009,08,19,03,57,17.60
2009,08,19,03,58,17.50
2009,08,19,03,59,17.50
2009,08,19,04,00,17.50
2009,08,19,04,01,17.50
2009,08,19,04,02,17.50
2009,08,19,04,03,17.50
2009,08,19,04,04,17.50
2009,08,19,04,05,17.50
2009,08,19,04,06,17.50
2009,08,19,04,07,17.50
2009,08,19,04,08,17.50
2009,08,19,04,09,17.40
2009,08,19,04,10,17.40
2009,08,19,04,11,17.40
2009,08,19,04,12,17.40
2009,08,19,04,13,17.40
2009,08,19,04,14,17.40
2009,08,19,04,15,17.40
2009,08,19,04,16,17.40
2009,08,19,04,17,17.40
2009,08,19,04,18,17.40
2009,08,19,04,19,17.40
2009,08,19,04,20,17.40
2009,08,19,04,21,17.40
2009,08,19,04,22,17.30
2009,08,19,04,23,17.30
2009,08,19,04,24,17.30
2009,08,19,04,25,17.30
2009,08,19,04,26,17.30
2009,08,19,04,27,17.30
2009,08,19,04,28,17.30
2009,08,19,04,29,17.30
2009,08,19,04,30,17.30
2009,08,19,04,31,17.20
2009,08,19,04,32,17.20
2009,08,19,04,33,17.20
2009,08,19,04,34,17.20
2009,08,19,04,35,17.20
2009,08,19,04,36,17.20
2009,08,19,04,37,17.20
2009,08,19,04,38,17.20
2009,08,19,04,39,17.20
2009,08,19,04,40,17.20
2009,08,19,04,41,17.20
2009,08,19,04,42,17.20
2009,08,19,04,43,17.20
2009,08,19,04,44,17.10
2009,08,19,04,45,17.10
2009,08,19,04,46,17.10
2009,08,19,04,47,17.10
2009,08,19,04,48,17.10
2009,08,19,04,49,17.10
2009,08,19,04,50,17.10
2009,08,19,04,51,17.10
2009,08,19,04,52,17.10
2009,08,19,04,53,17.10
2009,08,19,04,54,17.10
2009,08,19,04,55,17.10
2009,08,19,04,56,17.10
2009,08,19,04,57,17.00
2009,08,19,04,58,17.00
2009,08,19,04,59,17.00
2009,08,19,05,00,17.00
2009,08,19,05,01,17.00
2009,08,19,05,02,17.00
2009,08,19,05,03,17.00
2009,08,19,05,04,17.00
2009,08,19,05,05,17.00
2009,08,19,05,06,16.90
2009,08,19,05,07,16.90
2009,08,19,05,08,16.90
2009,08,19,05,09,16.90
2009,08,19,05,10,16.90
2009,08,19,05,11,16.90
2009,08,19,05,12,16.80
2009,08,19,05,13,16.80
2009,08,19,05,14,16.80
2009,08,19,05,15,16.80
2009,08,19,05,16,16.80
2009,08,19,05,17,16.80
2009,08,19,05,18,16.80
2009,08,19,05,19,16.80
2009,08,19,05,20,16.70
2009,08,19,05,21,16.70
2009,08,19,05,22,16.70
2009,08,19,05,23,16.70
2009,08,19,05,24,16.70
2009,08,19,05,25,16.70
2009,08,19,05,26,16.70
2009,08,19,05,27,16.70
2009,08,19,05,28,16.70
2009,08,19,05,29,16.70
2009,08,19,05,30,16.70
2009,08,19,05,31,16.70
2009,08,19,05,32,16.70
2009,08,19,05,33,16.70
2009,08,19,05,34,16.70
2009,08,19,05,35,16.70
2009,08,19,05,36,16.60
2009,08,19,05,37,16.60
2009,08,19,05,38,16.60
2009,08,19,05,39,16.60
2009,08,19,05,40,16.60
2009,08,19,05,41,16.60
2009,08,19,05,42,16.60
2009,08,19,05,43,16.60
2009,08,19,05,44,16.50
2009,08,19,05,45,16.50
2009,08,19,05,46,16.50
2009,08,19,05,47,16.40
2009,08,19,05,48,16.40
2009,08,19,05,49,16.40
2009,08,19,05,50,16.40
2009,08,19,05,51,16.40
2009,08,19,05,52,16.40
2009,08,19,05,53,16.40
2009,08,19,05,54,16.40
2009,08,19,05,55,16.40
2009,08,19,05,56,16.40
2009,08,19,05,57,16.40
2009,08,19,05,58,16.40
2009,08,19,05,59,16.40
2009,08,19,06,00,16.40
2009,08,19,06,01,16.40
2009,08,19,06,02,16.40
2009,08,19,06,03,16.40
2009,08,19,06,04,16.40
2009,08,19,06,05,16.40
2009,08,19,06,06,16.40
2009,08,19,06,07,16.40
2009,08,19,06,08,16.40
2009,08,19,06,09,16.50
2009,08,19,06,10,16.50
2009,08,19,06,11,16.50
2009,08,19,06,12,16.60
2009,08,19,06,13,16.60
2009,08,19,06,14,16.60
2009,08,19,06,15,16.70
2009,08,19,06,16,16.70
2009,08,19,06,17,16.70
2009,08,19,06,18,16.70
2009,08,19,06,19,16.70
2009,08,19,06,20,16.70
2009,08,19,06,21,16.80
2009,08,19,06,22,16.80
2009,08,19,06,23,16.80
2009,08,19,06,24,16.80
2009,08,19,06,25,16.80
2009,08,19,06,26,16.80
2009,08,19,06,27,16.90
2009,08,19,06,28,16.90
2009,08,19,06,29,16.90
2009,08,19,06,30,16.90
2009,08,19,06,31,16.90
2009,08,19,06,32,16.90
2009,08,19,06,33,16.90
2009,08,19,06,34,16.90
2009,08,19,06,35,16.90
2009,08,19,06,36,16.90
2009,08,19,06,37,16.90
2009,08,19,06,38,17.00
2009,08,19,06,39,17.00
2009,08,19,06,40,17.00
2009,08,19,06,41,17.00
2009,08,19,06,42,17.00
2009,08,19,06,43,17.10
2009,08,19,06,44,17.10
2009,08,19,06,45,17.10
2009,08,19,06,46,17.10
2009,08,19,06,47,17.10
2009,08,19,06,48,17.10
2009,08,19,06,49,17.10
2009,08,19,06,50,17.10
2009,08,19,06,51,17.10
2009,08,19,06,52,17.10
2009,08,19,06,53,17.10
2009,08,19,06,54,17.20
2009,08,19,06,55,17.20
2009,08,19,06,56,17.20
2009,08,19,06,57,17.20
2009,08,19,06,58,17.20
2009,08,19,06,59,17.20
2009,08,19,07,00,17.20
2009,08,19,07,01,17.20
2009,08,19,07,02,17.20
2009,08,19,07,03,17.20
2009,08,19,07,04,17.30
2009,08,19,07,05,17.30
2009,08,19,07,06,17.30
2009,08,19,07,07,17.30
2009,08,19,07,08,17.30
2009,08,19,07,09,17.30
2009,08,19,07,10,17.30
2009,08,19,07,11,17.30
2009,08,19,07,12,17.40
2009,08,19,07,13,17.40
2009,08,19,07,14,17.40
2009,08,19,07,15,17.40
2009,08,19,07,16,17.40
2009,08,19,07,17,17.40
2009,08,19,07,18,17.50
2009,08,19,07,19,17.50
2009,08,19,07,20,17.50
2009,08,19,07,21,17.60
2009,08,19,07,22,17.60
2009,08,19,07,23,17.60
2009,08,19,07,24,17.60
2009,08,19,07,25,17.60
2009,08,19,07,26,17.60
2009,08,19,07,27,17.60
2009,08,19,07,28,17.70
2009,08,19,07,29,17.70
2009,08,19,07,30,17.70
2009,08,19,07,31,17.70
2009,08,19,07,32,17.70
2009,08,19,07,33,17.70
2009,08,19,07,34,17.70
2009,08,19,07,35,17.80
2009,08,19,07,36,17.80
2009,08,19,07,37,17.80
2009,08,19,07,38,17.80
2009,08,19,07,39,17.80
2009,08,19,07,40,17.90
2009,08,19,07,41,17.90
2009,08,19,07,42,17.90
2009,08,19,07,43,18.00
2009,08,19,07,44,18.00
2009,08,19,07,45,18.00
2009,08,19,07,46,18.10
2009,08,19,07,47,18.10
2009,08,19,07,48,18.10
2009,08,19,07,49,18.20
2009,08,19,07,50,18.20
2009,08,19,07,51,18.20
2009,08,19,07,52,18.20
2009,08,19,07,53,18.20
2009,08,19,07,54,18.30
2009,08,19,07,55,18.30
2009,08,19,07,56,18.30
2009,08,19,07,57,18.30
2009,08,19,07,58,18.30
2009,08,19,07,59,18.30
2009,08,19,08,00,18.30
2009,08,19,08,01,18.30
2009,08,19,08,02,18.30
2009,08,19,08,03,18.30
2009,08,19,08,04,18.30
2009,08,19,08,05,18.30
2009,08,19,08,06,18.30
2009,08,19,08,07,18.30
2009,08,19,08,08,18.30
2009,08,19,08,09,18.30
2009,08,19,08,10,18.30
2009,08,19,08,11,18.30
2009,08,19,08,12,18.20
2009,08,19,08,13,18.30
2009,08,19,08,14,18.30
2009,08,19,08,15,18.30
2009,08,19,08,16,18.30
2009,08,19,08,17,18.30
2009,08,19,08,18,18.30
2009,08,19,08,19,18.30
2009,08,19,08,20,18.30
2009,08,19,08,21,18.30
2009,08,19,08,22,18.30
2009,08,19,08,23,18.40
2009,08,19,08,24,18.40
2009,08,19,08,25,18.40
2009,08,19,08,26,18.50
2009,08,19,08,27,18.50
2009,08,19,08,28,18.60
2009,08,19,08,29,18.60
2009,08,19,08,30,18.70
2009,08,19,08,31,18.70
2009,08,19,08,32,18.70
2009,08,19,08,33,18.70
2009,08,19,08,34,18.70
2009,08,19,08,35,18.70
2009,08,19,08,36,18.70
2009,08,19,08,37,18.70
2009,08,19,08,38,18.80
2009,08,19,08,39,18.80
2009,08,19,08,40,18.80
2009,08,19,08,41,18.80
2009,08,19,08,42,18.90
2009,08,19,08,43,18.90
2009,08,19,08,44,18.90
2009,08,19,08,45,18.90
2009,08,19,08,46,18.90
2009,08,19,08,47,18.90
2009,08,19,08,48,18.90
2009,08,19,08,49,19.00
2009,08,19,08,50,19.00
2009,08,19,08,51,19.00
2009,08,19,08,52,19.10
2009,08,19,08,53,19.10
2009,08,19,08,54,19.10
2009,08,19,08,55,19.10
2009,08,19,08,56,19.10
2009,08,19,08,57,19.10
2009,08,19,08,58,19.20
2009,08,19,08,59,19.20
2009,08,19,09,00,19.20
2009,08,19,09,01,19.30
2009,08,19,09,02,19.30
2009,08,19,09,03,19.30
2009,08,19,09,04,19.30
2009,08,19,09,05,19.30
2009,08,19,09,06,19.30
2009,08,19,09,07,19.40
2009,08,19,09,08,19.40
2009,08,19,09,09,19.50
2009,08,19,09,10,19.50
2009,08,19,09,11,19.50
2009,08,19,09,12,19.50
2009,08,19,09,13,19.50
2009,08,19,09,14,19.50
2009,08,19,09,15,19.50
2009,08,19,09,16,19.50
2009,08,19,09,17,19.50
2009,08,19,09,18,19.50
2009,08,19,09,19,19.50
2009,08,19,09,20,19.60
2009,08,19,09,21,19.60
2009,08,19,09,22,19.60
2009,08,19,09,23,19.60
2009,08,19,09,24,19.60
2009,08,19,09,25,19.70
2009,08,19,09,26,19.70
2009,08,19,09,27,19.70
2009,08,19,09,28,19.70
2009,08,19,09,29,19.80
2009,08,19,09,30,19.80
2009,08,19,09,31,19.90
2009,08,19,09,32,19.90
2009,08,19,09,33,19.90
2009,08,19,09,34,20.00
2009,08,19,09,35,20.00
2009,08,19,09,36,20.10
2009,08,19,09,37,20.10
2009,08,19,09,38,20.10
2009,08,19,09,39,20.10
2009,08,19,09,40,20.10
2009,08,19,09,41,20.10
2009,08,19,09,42,20.20
2009,08,19,09,43,20.20
2009,08,19,09,44,20.20
2009,08,19,09,45,20.20
2009,08,19,09,46,20.20
2009,08,19,09,47,20.20
2009,08,19,09,48,20.20
2009,08,19,09,49,20.10
2009,08,19,09,50,20.10
2009,08,19,09,51,20.00
2009,08,19,09,52,19.90
2009,08,19,09,53,19.80
2009,08,19,09,54,19.80
2009,08,19,09,55,19.70
2009,08,19,09,56,19.70
2009,08,19,09,57,19.60
2009,08,19,09,58,19.60
2009,08,19,09,59,19.70
2009,08,19,10,00,19.70
2009,08,19,10,01,19.70
2009,08,19,10,02,19.70
2009,08,19,10,03,19.80
2009,08,19,10,04,19.80
2009,08,19,10,05,19.80
2009,08,19,10,06,19.80
2009,08,19,10,07,19.80
2009,08,19,10,08,19.70
2009,08,19,10,09,19.70
2009,08,19,10,10,19.70
2009,08,19,10,11,19.70
2009,08,19,10,12,19.80
2009,08,19,10,13,19.80
2009,08,19,10,14,19.80
2009,08,19,10,15,19.80
2009,08,19,10,16,19.70
2009,08,19,10,17,19.60
2009,08,19,10,18,19.50
2009,08,19,10,19,19.50
2009,08,19,10,20,19.40
2009,08,19,10,21,19.40
2009,08,19,10,22,19.40
2009,08,19,10,23,19.40
2009,08,19,10,24,19.40
2009,08,19,10,25,19.40
2009,08,19,10,26,19.30
2009,08,19,10,27,19.20
2009,08,19,10,28,19.20
2009,08,19,10,29,19.20
2009,08,19,10,30,19.20
2009,08,19,10,31,19.20
2009,08,19,10,32,19.20
2009,08,19,10,33,19.30
2009,08,19,10,34,19.20
2009,08,19,10,35,19.30
2009,08,19,10,36,19.30
2009,08,19,10,37,19.30
2009,08,19,10,38,19.20
2009,08,19,10,39,19.20
2009,08,19,10,40,19.20
2009,08,19,10,41,19.20
2009,08,19,10,42,19.20
2009,08,19,10,43,19.20
2009,08,19,10,44,19.20
2009,08,19,10,45,19.20
2009,08,19,10,46,19.30
2009,08,19,10,47,19.20
2009,08,19,10,48,19.20
2009,08,19,10,49,19.20
2009,08,19,10,50,19.30
2009,08,19,10,51,19.30
2009,08,19,10,52,19.30
2009,08,19,10,53,19.40
2009,08,19,10,54,19.40
2009,08,19,10,55,19.40
2009,08,19,10,56,19.40
2009,08,19,10,57,19.40
2009,08,19,10,58,19.40
2009,08,19,10,59,19.40
2009,08,19,11,00,19.40
2009,08,19,11,01,19.40
2009,08,19,11,02,19.40
2009,08,19,11,03,19.40
2009,08,19,11,04,19.50
2009,08,19,11,05,19.60
2009,08,19,11,06,19.60
2009,08,19,11,07,19.70
2009,08,19,11,08,19.70
2009,08,19,11,09,19.70
2009,08,19,11,10,19.70
2009,08,19,11,11,19.70
2009,08,19,11,12,19.70
2009,08,19,11,13,19.80
2009,08,19,11,14,19.90
2009,08,19,11,15,19.90
2009,08,19,11,16,20.00
2009,08,19,11,17,20.10
2009,08,19,11,18,20.10
2009,08,19,11,19,20.20
2009,08,19,11,20,20.20
2009,08,19,11,21,20.30
2009,08,19,11,22,20.30
2009,08,19,11,23,20.20
2009,08,19,11,24,20.20
2009,08,19,11,25,20.20
2009,08,19,11,26,20.20
2009,08,19,11,27,20.10
2009,08,19,11,28,20.20
2009,08,19,11,29,20.20
2009,08,19,11,30,20.30
2009,08,19,11,31,20.50
2009,08,19,11,32,20.60
2009,08,19,11,33,20.70
2009,08,19,11,34,20.70
2009,08,19,11,35,20.70
2009,08,19,11,36,20.70
2009,08,19,11,37,20.70
2009,08,19,11,38,20.80
2009,08,19,11,39,20.90
2009,08,19,11,40,20.90
2009,08,19,11,41,21.00
2009,08,19,11,42,20.90
2009,08,19,11,43,20.90
2009,08,19,11,44,20.90
2009,08,19,11,45,20.80
2009,08,19,11,46,20.80
2009,08,19,11,47,20.90
2009,08,19,11,48,21.00
2009,08,19,11,49,21.00
2009,08,19,11,50,21.10
2009,08,19,11,51,21.20
2009,08,19,11,52,21.30
2009,08,19,11,53,21.40
2009,08,19,11,54,21.40
2009,08,19,11,55,21.40
2009,08,19,11,56,21.40
2009,08,19,11,57,21.30
2009,08,19,11,58,21.30
2009,08,19,11,59,21.30
2009,08,19,12,00,21.40
2009,08,19,12,01,21.40
2009,08,19,12,02,21.40
2009,08,19,12,03,21.40
2009,08,19,12,04,21.30
2009,08,19,12,05,21.40
2009,08,19,12,06,21.40
2009,08,19,12,07,21.50
2009,08,19,12,08,21.60
2009,08,19,12,09,21.60
2009,08,19,12,10,21.60
2009,08,19,12,11,21.60
2009,08,19,12,12,21.60
2009,08,19,12,13,21.70
2009,08,19,12,14,21.80
2009,08,19,12,15,21.90
2009,08,19,12,16,22.00
2009,08,19,12,17,22.20
2009,08,19,12,18,22.20
2009,08,19,12,19,22.30
2009,08,19,12,20,22.30
2009,08,19,12,21,22.20
2009,08,19,12,22,22.20
2009,08,19,12,23,22.20
2009,08,19,12,24,22.20
2009,08,19,12,25,22.20
2009,08,19,12,26,22.20
2009,08,19,12,27,22.20
2009,08,19,12,28,22.30
2009,08,19,12,29,22.30
2009,08,19,12,30,22.20
2009,08,19,12,31,22.20
2009,08,19,12,32,22.20
2009,08,19,12,33,22.30
2009,08,19,12,34,22.30
2009,08,19,12,35,22.30
2009,08,19,12,36,22.30
2009,08,19,12,37,22.30
2009,08,19,12,38,22.30
2009,08,19,12,39,22.30
2009,08,19,12,40,22.30
2009,08,19,12,41,22.30
2009,08,19,12,42,22.30
2009,08,19,12,43,22.30
2009,08,19,12,44,22.30
2009,08,19,12,45,22.20
2009,08,19,12,46,22.30
2009,08,19,12,47,22.30
2009,08,19,12,48,22.40
2009,08,19,12,49,22.40
2009,08,19,12,50,22.40
2009,08,19,12,51,22.40
2009,08,19,12,52,22.40
2009,08,19,12,53,22.40
2009,08,19,12,54,22.30
2009,08,19,12,55,22.30
2009,08,19,12,56,22.30
2009,08,19,12,57,22.20
2009,08,19,12,58,22.20
2009,08,19,12,59,22.20
2009,08,19,13,00,22.30
2009,08,19,13,01,22.30
2009,08,19,13,02,22.30
2009,08,19,13,03,22.40
2009,08,19,13,04,22.40
2009,08,19,13,05,22.40
2009,08,19,13,06,22.40
2009,08,19,13,07,22.40
2009,08,19,13,08,22.40
2009,08,19,13,09,22.40
2009,08,19,13,10,22.50
2009,08,19,13,11,22.50
2009,08,19,13,12,22.60
2009,08,19,13,13,22.60
2009,08,19,13,14,22.70
2009,08,19,13,15,22.70
2009,08,19,13,16,22.70
2009,08,19,13,17,22.80
2009,08,19,13,18,22.80
2009,08,19,13,19,22.80
2009,08,19,13,20,22.80
2009,08,19,13,21,22.90
2009,08,19,13,22,22.90
2009,08,19,13,23,23.00
2009,08,19,13,24,23.00
2009,08,19,13,25,23.10
2009,08,19,13,26,23.10
2009,08,19,13,27,23.10
2009,08,19,13,28,23.20
2009,08,19,13,29,23.20
2009,08,19,13,30,23.10
2009,08,19,13,31,23.10
2009,08,19,13,32,23.10
2009,08,19,13,33,23.00
2009,08,19,13,34,22.90
2009,08,19,13,35,23.00
2009,08,19,13,36,23.00
2009,08,19,13,37,23.10
2009,08,19,13,38,23.20
2009,08,19,13,39,23.30
2009,08,19,13,40,23.40
2009,08,19,13,41,23.50
2009,08,19,13,42,23.60
2009,08,19,13,43,23.60
2009,08,19,13,44,23.60
2009,08,19,13,45,23.60
2009,08,19,13,46,23.70
2009,08,19,13,47,23.70
2009,08,19,13,48,23.70
2009,08,19,13,49,23.70
2009,08,19,13,50,23.80
2009,08,19,13,51,23.80
2009,08,19,13,52,23.80
2009,08,19,13,53,23.90
2009,08,19,13,54,24.00
2009,08,19,13,55,24.00
2009,08,19,13,56,24.10
2009,08,19,13,57,24.10
2009,08,19,13,58,24.10
2009,08,19,13,59,24.10
2009,08,19,14,00,24.20
2009,08,19,14,01,24.20
2009,08,19,14,02,24.20
2009,08,19,14,03,24.30
2009,08,19,14,04,24.40
2009,08,19,14,05,24.40
2009,08,19,14,06,24.40
2009,08,19,14,07,24.40
2009,08,19,14,08,24.40
2009,08,19,14,09,24.40
2009,08,19,14,10,24.40
2009,08,19,14,11,24.50
2009,08,19,14,12,24.50
2009,08,19,14,13,24.50
2009,08,19,14,14,24.40
2009,08,19,14,15,24.30
2009,08,19,14,16,24.30
2009,08,19,14,17,24.30
2009,08,19,14,18,24.40
2009,08,19,14,19,24.40
2009,08,19,14,20,24.50
2009,08,19,14,21,24.50
2009,08,19,14,22,24.60
2009,08,19,14,23,24.60
2009,08,19,14,24,24.70
2009,08,19,14,25,24.80
2009,08,19,14,26,24.90
2009,08,19,14,27,25.00
2009,08,19,14,28,25.10
2009,08,19,14,29,25.10
2009,08,19,14,30,25.10
2009,08,19,14,31,25.10
2009,08,19,14,32,25.20
2009,08,19,14,33,25.30
2009,08,19,14,34,25.50
2009,08,19,14,35,25.50
2009,08,19,14,36,25.40
2009,08,19,14,37,25.40
2009,08,19,14,38,25.30
2009,08,19,14,39,25.20
2009,08,19,14,40,25.10
2009,08,19,14,41,25.10
2009,08,19,14,42,25.10
2009,08,19,14,43,25.20
2009,08,19,14,44,25.30
2009,08,19,14,45,25.40
2009,08,19,14,46,25.50
2009,08,19,14,47,25.60
2009,08,19,14,48,25.70
2009,08,19,14,49,25.70
2009,08,19,14,50,25.60
2009,08,19,14,51,25.60
2009,08,19,14,52,25.50
2009,08,19,14,53,25.40
2009,08,19,14,54,25.30
2009,08,19,14,55,25.30
2009,08,19,14,56,25.30
2009,08,19,14,57,25.30
2009,08,19,14,58,25.30
2009,08,19,14,59,25.30
2009,08,19,15,00,25.30
2009,08,19,15,01,25.30
2009,08,19,15,02,25.40
2009,08,19,15,03,25.30
2009,08,19,15,04,25.30
2009,08,19,15,05,25.20
2009,08,19,15,06,25.20
2009,08,19,15,07,25.10
2009,08,19,15,08,25.00
2009,08,19,15,09,24.90
2009,08,19,15,10,24.80
2009,08,19,15,11,24.80
2009,08,19,15,12,24.80
2009,08,19,15,13,24.90
2009,08,19,15,14,25.00
2009,08,19,15,15,24.90
2009,08,19,15,16,24.90
2009,08,19,15,17,24.90
2009,08,19,15,18,25.00
2009,08,19,15,19,25.00
2009,08,19,15,20,25.10
2009,08,19,15,21,25.10
2009,08,19,15,22,25.20
2009,08,19,15,23,25.20
2009,08,19,15,24,25.20
2009,08,19,15,25,25.20
2009,08,19,15,26,25.10
2009,08,19,15,27,25.10
2009,08,19,15,28,25.10
2009,08,19,15,29,25.10
2009,08,19,15,30,25.10
2009,08,19,15,31,25.20
2009,08,19,15,32,25.30
2009,08,19,15,33,25.20
2009,08,19,15,34,25.30
2009,08,19,15,35,25.50
2009,08,19,15,36,25.60
2009,08,19,15,37,25.70
2009,08,19,15,38,25.80
2009,08,19,15,39,25.80
2009,08,19,15,40,25.80
2009,08,19,15,41,25.80
2009,08,19,15,42,25.70
2009,08,19,15,43,25.60
2009,08,19,15,44,25.60
2009,08,19,15,45,25.60
2009,08,19,15,46,25.60
2009,08,19,15,47,25.50
2009,08,19,15,48,25.40
2009,08,19,15,49,25.30
2009,08,19,15,50,25.30
2009,08,19,15,51,25.30
2009,08,19,15,52,25.30
2009,08,19,15,53,25.40
2009,08,19,15,54,25.50
2009,08,19,15,55,25.60
2009,08,19,15,56,25.80
2009,08,19,15,57,25.80
2009,08,19,15,58,25.80
2009,08,19,15,59,25.80
2009,08,19,16,00,25.80
2009,08,19,16,01,25.80
2009,08,19,16,02,25.80
2009,08,19,16,03,25.90
2009,08,19,16,04,25.90
2009,08,19,16,05,26.00
2009,08,19,16,06,26.10
2009,08,19,16,07,26.20
2009,08,19,16,08,26.30
2009,08,19,16,09,26.40
2009,08,19,16,10,26.50
2009,08,19,16,11,26.60
2009,08,19,16,12,26.60
2009,08,19,16,13,26.60
2009,08,19,16,14,26.70
2009,08,19,16,15,26.70
2009,08,19,16,16,26.70
2009,08,19,16,17,26.70
2009,08,19,16,18,26.70
2009,08,19,16,19,26.70
2009,08,19,16,20,26.70
2009,08,19,16,21,26.60
2009,08,19,16,22,26.60
2009,08,19,16,23,26.70
2009,08,19,16,24,26.70
2009,08,19,16,25,26.80
2009,08,19,16,26,26.80
2009,08,19,16,27,26.80
2009,08,19,16,28,26.80
2009,08,19,16,29,26.70
2009,08,19,16,30,26.70
2009,08,19,16,31,26.70
2009,08,19,16,32,26.70
2009,08,19,16,33,26.70
2009,08,19,16,34,26.70
2009,08,19,16,35,26.70
2009,08,19,16,36,26.70
2009,08,19,16,37,26.80
2009,08,19,16,38,26.80
2009,08,19,16,39,26.90
2009,08,19,16,40,26.80
2009,08,19,16,41,26.80
2009,08,19,16,42,26.80
2009,08,19,16,43,26.80
2009,08,19,16,44,26.80
2009,08,19,16,45,26.80
2009,08,19,16,46,26.80
2009,08,19,16,47,26.80
2009,08,19,16,48,26.80
2009,08,19,16,49,26.80
2009,08,19,16,50,26.80
2009,08,19,16,51,26.90
2009,08,19,16,52,26.90
2009,08,19,16,53,26.90
2009,08,19,16,54,26.90
2009,08,19,16,55,26.90
2009,08,19,16,56,26.90
2009,08,19,16,57,26.90
2009,08,19,16,58,27.00
2009,08,19,16,59,27.10
2009,08,19,17,00,27.10
2009,08,19,17,01,27.10
2009,08,19,17,02,27.00
2009,08,19,17,03,27.00
2009,08,19,17,04,26.90
2009,08,19,17,05,26.90
2009,08,19,17,06,26.90
2009,08,19,17,07,26.80
2009,08,19,17,08,26.80
2009,08,19,17,09,26.80
2009,08,19,17,10,26.70
2009,08,19,17,11,26.70
2009,08,19,17,12,26.70
2009,08,19,17,13,26.70
2009,08,19,17,14,26.80
2009,08,19,17,15,26.90
2009,08,19,17,16,26.80
2009,08,19,17,17,26.80
2009,08,19,17,18,26.80
2009,08,19,17,19,26.80